Location: Bruch
(44.2051°N, 0.4120°E)
Time: 09:19:10
(UTC+00:00)

Cosmos 1689 Rocket - Pass Details

Date: 29 November 2020
Orbit: 355 x 370 km, 97.5° (Epoch: 26 January)

Event Time Altitude Azimuth Distance (km) Brightness Sun altitude
Rises 05:04:03 0° 155° (SSE) 2,169 6.3 -22.3°
Reaches altitude 10° 05:06:00 10° 149° (SSE) 1,332 5.3 -22.0°
Enters shadow 05:08:35 46° 86° (E) 493 3.0 -21.5°
